EN

Hourly Weather Ambalema

Today, 23 January, Saturday

Time Temperature Precipitation Wind Pressure Humidity
00:00 +26°C° 0.7 mm 1 mps 738 mmHg 88%
01:00 +25°C° 0.7 mm 1 mps 738 mmHg 89%
02:00 +25°C° 0.5 mm 1 mps 738 mmHg 89%
03:00 +25°C° 0.5 mm 1 mps 737 mmHg 88%
04:00 +25°C° 0.5 mm 1 mps 737 mmHg 88%
05:00 +25°C° 0.4 mm 1 mps 738 mmHg 88%
06:00 +25°C° 0.4 mm 1 mps 738 mmHg 88%
07:00 +23°C° 5.8 mm 0 mps 739 mmHg 89%
08:00 +25°C° 0.4 mm 0 mps 739 mmHg 85%
09:00 +28°C° 0.4 mm 1 mps 739 mmHg 81%
10:00 +29°C° 0.4 mm 1 mps 739 mmHg 77%
11:00 +31°C° 0.3 mm 1 mps 738 mmHg 71%
12:00 +32°C° 0.3 mm 1 mps 737 mmHg 64%
13:00 +34°C° 0.3 mm 1 mps 737 mmHg 58%
14:00 +34°C° 0.3 mm 1 mps 736 mmHg 58%
15:00 +33°C° 0.3 mm 1 mps 735 mmHg 59%
16:00 +33°C° 0.3 mm 1 mps 735 mmHg 60%
17:00 +31°C° 0.3 mm 1 mps 735 mmHg 69%
18:00 +29°C° 0.3 mm 1 mps 736 mmHg 75%
19:00 +28°C° 0.3 mm 1 mps 737 mmHg 81%
20:00 +28°C° 0.3 mm 1 mps 737 mmHg 82%
21:00 +27°C° 0.3 mm 1 mps 738 mmHg 82%
22:00 +27°C° 0.3 mm 1 mps 738 mmHg 83%
23:00 +26°C° 0.5 mm 1 mps 738 mmHg 84%

Tomorrow, 24 January, Sunday

Time Temperature Precipitation Wind Pressure Humidity
00:00 +26°C° 0.5 mm 1 mps 738 mmHg 85%
01:00 +26°C° 0.5 mm 1 mps 738 mmHg 85%
02:00 +25°C° 0.3 mm 1 mps 737 mmHg 86%
03:00 +25°C° 0.3 mm 1 mps 737 mmHg 87%
04:00 +25°C° 0.3 mm 1 mps 737 mmHg 88%
05:00 +25°C° 0.1 mm 1 mps 737 mmHg 87%
06:00 +25°C° 0.1 mm 1 mps 738 mmHg 86%
07:00 +25°C° 0.1 mm 1 mps 738 mmHg 85%
08:00 +27°C° 0.1 mm 1 mps 738 mmHg 79%
09:00 +29°C° 0.1 mm 1 mps 738 mmHg 73%
10:00 +31°C° 0.1 mm 1 mps 738 mmHg 67%
11:00 +32°C° 0.2 mm 1 mps 737 mmHg 63%
12:00 +33°C° 0.2 mm 1 mps 736 mmHg 58%
13:00 +34°C° 0.2 mm 1 mps 735 mmHg 54%
14:00 +34°C° 0.1 mm 1 mps 735 mmHg 54%
15:00 +34°C° 0.1 mm 1 mps 734 mmHg 55%
16:00 +34°C° 0.1 mm 1 mps 734 mmHg 55%
17:00 +32°C° 0.4 mm 1 mps 734 mmHg 63%
18:00 +30°C° 0.4 mm 1 mps 735 mmHg 71%
19:00 +28°C° 0.4 mm 1 mps 736 mmHg 78%
20:00 +28°C° 0.7 mm 1 mps 736 mmHg 80%
21:00 +27°C° 0.7 mm 1 mps 737 mmHg 83%
22:00 +27°C° 0.7 mm 1 mps 737 mmHg 85%
23:00 +26°C° 0.6 mm 1 mps 737 mmHg 86%

Day after tomorrow, 25 January, Monday

Time Temperature Precipitation Wind Pressure Humidity
00:00 +26°C° 0.6 mm 1 mps 737 mmHg 87%
01:00 +25°C° 0.6 mm 1 mps 737 mmHg 89%
02:00 +25°C° 0.4 mm 1 mps 736 mmHg 89%
03:00 +25°C° 0.4 mm 1 mps 736 mmHg 90%
04:00 +25°C° 0.4 mm 1 mps 736 mmHg 91%
05:00 +25°C° 0.3 mm 1 mps 737 mmHg 89%
06:00 +25°C° 0.3 mm 1 mps 737 mmHg 88%
07:00 +25°C° 0.3 mm 1 mps 738 mmHg 87%
08:00 +27°C° 0.1 mm 1 mps 738 mmHg 81%
09:00 +29°C° 0.1 mm 1 mps 738 mmHg 76%
10:00 +30°C° 0.1 mm 1 mps 738 mmHg 70%
11:00 +32°C° 0.2 mm 2 mps 737 mmHg 65%
12:00 +34°C° 0.2 mm 2 mps 736 mmHg 59%
13:00 +35°C° 0.2 mm 2 mps 736 mmHg 53%
14:00 +35°C° 0.3 mm 2 mps 735 mmHg 53%
15:00 +35°C° 0.3 mm 2 mps 734 mmHg 54%
16:00 +34°C° 0.3 mm 1 mps 734 mmHg 54%
17:00 +32°C° 0.2 mm 1 mps 734 mmHg 61%
18:00 +30°C° 0.2 mm 1 mps 735 mmHg 68%
19:00 +29°C° 0.2 mm 1 mps 736 mmHg 75%
20:00 +28°C° 0.6 mm 1 mps 736 mmHg 78%
21:00 +28°C° 0.6 mm 1 mps 737 mmHg 81%
22:00 +27°C° 0.6 mm 1 mps 737 mmHg 83%
23:00 +27°C° 0.7 mm 1 mps 737 mmHg 84%

26 January, Tuesday

Time Temperature Precipitation Wind Pressure Humidity
00:00 +26°C° 0.7 mm 1 mps 737 mmHg 86%
01:00 +26°C° 0.7 mm 1 mps 737 mmHg 87%
02:00 +25°C° 0.9 mm 1 mps 737 mmHg 88%
03:00 +25°C° 0.9 mm 1 mps 736 mmHg 88%
04:00 +25°C° 0.9 mm 1 mps 736 mmHg 88%
05:00 +25°C° 0.8 mm 1 mps 737 mmHg 88%
06:00 +23°C° 0.8 mm 0 mps 737 mmHg 87%
07:00 +24°C° 0.8 mm 0 mps 738 mmHg 86%
08:00 +25°C° 0.4 mm 0 mps 738 mmHg 83%
09:00 +26°C° 0.4 mm 0 mps 738 mmHg 81%
10:00 +29°C° 0.4 mm 1 mps 738 mmHg 78%
11:00 +31°C° 0.3 mm 1 mps 737 mmHg 69%
12:00 +33°C° 0.3 mm 1 mps 737 mmHg 60%
13:00 +35°C° 0.3 mm 1 mps 736 mmHg 52%
14:00 +35°C° 0.1 mm 1 mps 735 mmHg 53%
15:00 +34°C° 0.1 mm 1 mps 735 mmHg 54%
16:00 +34°C° 0.1 mm 1 mps 734 mmHg 56%
17:00 +32°C° 0.4 mm 1 mps 735 mmHg 64%
18:00 +30°C° 0.4 mm 1 mps 735 mmHg 73%
19:00 +28°C° 0.4 mm 1 mps 736 mmHg 81%
20:00 +28°C° 0.9 mm 1 mps 737 mmHg 83%
21:00 +27°C° 0.9 mm 1 mps 737 mmHg 85%
22:00 +27°C° 0.9 mm 1 mps 738 mmHg 87%
23:00 +26°C° 0.4 mm 1 mps 738 mmHg 87%

27 January, Wednesday

Time Temperature Precipitation Wind Pressure Humidity
00:00 +26°C° 0.4 mm 1 mps 737 mmHg 87%
01:00 +26°C° 0.4 mm 1 mps 737 mmHg 87%
02:00 +26°C° 0.1 mm 1 mps 737 mmHg 87%
03:00 +25°C° 0.1 mm 1 mps 737 mmHg 87%
04:00 +25°C° 0.1 mm 1 mps 737 mmHg 87%
05:00 +25°C° 0 mm 1 mps 737 mmHg 87%
06:00 +24°C° 0 mm 0 mps 738 mmHg 86%
07:00 +24°C° 0 mm 0 mps 738 mmHg 85%
08:00 +28°C° 0.2 mm 1 mps 739 mmHg 79%
09:00 +30°C° 0.2 mm 1 mps 739 mmHg 73%
10:00 +32°C° 0.2 mm 1 mps 739 mmHg 66%
11:00 +33°C° 0.3 mm 1 mps 738 mmHg 62%
12:00 +34°C° 0.3 mm 1 mps 737 mmHg 57%
13:00 +35°C° 0.3 mm 1 mps 737 mmHg 53%
14:00 +35°C° 0.1 mm 1 mps 736 mmHg 54%
15:00 +34°C° 0.1 mm 1 mps 735 mmHg 56%
16:00 +34°C° 0.1 mm 1 mps 735 mmHg 58%
17:00 +32°C° 0.3 mm 1 mps 735 mmHg 66%
18:00 +30°C° 0.3 mm 1 mps 736 mmHg 74%
19:00 +28°C° 0.3 mm 1 mps 736 mmHg 83%
20:00 +28°C° 0.2 mm 1 mps 737 mmHg 83%
21:00 +27°C° 0.2 mm 1 mps 738 mmHg 84%
22:00 +27°C° 0.2 mm 1 mps 738 mmHg 85%
23:00 +26°C° 0.2 mm 1 mps 738 mmHg 85%

28 January, Thursday

Time Temperature Precipitation Wind Pressure Humidity
00:00 +26°C° 0.2 mm 1 mps 738 mmHg 85%
01:00 +26°C° 0.2 mm 1 mps 738 mmHg 85%
02:00 +26°C° 0 mm 1 mps 738 mmHg 85%
03:00 +25°C° 0 mm 1 mps 737 mmHg 85%
04:00 +25°C° 0 mm 1 mps 737 mmHg 85%
05:00 +25°C° 0 mm 1 mps 737 mmHg 84%
06:00 +25°C° 0 mm 1 mps 738 mmHg 83%
07:00 +26°C° 0 mm 1 mps 738 mmHg 82%
08:00 +28°C° 0.2 mm 1 mps 738 mmHg 74%
09:00 +30°C° 0.2 mm 1 mps 738 mmHg 67%
10:00 +33°C° 0.2 mm 1 mps 738 mmHg 59%
11:00 +34°C° 0.1 mm 1 mps 738 mmHg 55%
12:00 +35°C° 0.1 mm 1 mps 737 mmHg 51%
13:00 +36°C° 0.1 mm 1 mps 736 mmHg 47%
Show more